Time,TemperatureF,DewpointF,PressureIn,WindDirection,WindDirectionDegrees,WindSpeedMPH,WindSpeedGustMPH,Humidity,HourlyPrecipIn,Conditions,Clouds,dailyrainin,SoftwareType,DateUTC
2013-06-07 00:02:00,73.4,64.6,29.89,ENE,70,2.0,4.0,74,0.00,,,0.00,VWS V14.01,2013-06-07 05:02:00,
2013-06-07 00:07:00,73.3,64.5,29.89,ENE,68,3.0,5.0,74,0.00,,,0.00,VWS V14.01,2013-06-07 05:07:00,
2013-06-07 00:12:00,73.1,64.3,29.89,ENE,59,2.0,2.0,74,0.00,,,0.00,VWS V14.01,2013-06-07 05:12:00,
2013-06-07 00:17:00,72.8,64.4,29.90,NE,55,0.0,1.0,75,0.00,,,0.00,VWS V14.01,2013-06-07 05:17:00,
2013-06-07 00:22:00,72.6,64.2,29.90,NE,56,1.0,2.0,75,0.00,,,0.00,VWS V14.01,2013-06-07 05:22:00,
2013-06-07 00:27:00,72.5,64.1,29.90,East,91,1.0,5.0,75,0.00,,,0.00,VWS V14.01,2013-06-07 05:27:00,
2013-06-07 00:32:00,72.4,64.0,29.90,East,91,0.0,0.0,75,0.00,,,0.00,VWS V14.01,2013-06-07 05:32:00,
2013-06-07 00:37:00,72.1,64.1,29.90,East,87,1.0,1.0,76,0.00,,,0.00,VWS V14.01,2013-06-07 05:37:00,
2013-06-07 00:42:00,72.0,64.0,29.90,ENE,75,0.0,1.0,76,0.00,,,0.00,VWS V14.01,2013-06-07 05:42:00,
2013-06-07 00:47:00,71.8,64.2,29.90,ENE,76,0.0,0.0,77,0.00,,,0.00,VWS V14.01,2013-06-07 05:47:00,
2013-06-07 00:52:00,71.5,63.9,29.90,ENE,75,0.0,0.0,77,0.00,,,0.00,VWS V14.01,2013-06-07 05:52:00,
2013-06-07 00:57:00,71.5,63.9,29.90,ENE,76,0.0,0.0,77,0.00,,,0.00,VWS V14.01,2013-06-07 05:57:00,
2013-06-07 01:02:00,71.3,63.7,29.90,ENE,75,0.0,0.0,77,0.00,,,0.00,VWS V14.01,2013-06-07 06:02:00,
2013-06-07 01:07:00,71.0,63.8,29.91,ENE,71,0.0,0.0,78,0.00,,,0.00,VWS V14.01,2013-06-07 06:07:00,
2013-06-07 01:12:00,70.6,63.8,29.91,NE,39,0.0,0.0,79,0.00,,,0.00,VWS V14.01,2013-06-07 06:12:00,
2013-06-07 01:17:00,70.1,63.3,29.91,NE,40,0.0,0.0,79,0.00,,,0.00,VWS V14.01,2013-06-07 06:17:00,
2013-06-07 01:22:00,69.8,63.4,29.91,NE,40,0.0,0.0,80,0.00,,,0.00,VWS V14.01,2013-06-07 06:22:00,
2013-06-07 01:27:00,69.7,63.6,29.91,NE,35,1.0,2.0,81,0.00,,,0.00,VWS V14.01,2013-06-07 06:27:00,
2013-06-07 01:32:00,69.6,63.5,29.90,NNE,30,1.0,2.0,81,0.00,,,0.00,VWS V14.01,2013-06-07 06:32:00,
2013-06-07 01:37:00,69.6,63.5,29.90,NNE,18,2.0,2.0,81,0.00,,,0.00,VWS V14.01,2013-06-07 06:37:00,
2013-06-07 01:42:00,69.8,63.7,29.90,NNE,18,2.0,2.0,81,0.00,,,0.00,VWS V14.01,2013-06-07 06:42:00,
2013-06-07 01:47:00,69.9,63.8,29.90,NNE,18,1.0,2.0,81,0.00,,,0.00,VWS V14.01,2013-06-07 06:47:00,
2013-06-07 01:52:00,69.9,63.8,29.90,NNE,18,0.0,1.0,81,0.00,,,0.00,VWS V14.01,2013-06-07 06:52:00,
2013-06-07 01:57:00,69.7,63.6,29.89,NNE,18,0.0,0.0,81,0.00,,,0.00,VWS V14.01,2013-06-07 06:57:00,
2013-06-07 02:02:00,69.4,63.7,29.89,NNE,18,0.0,0.0,82,0.00,,,0.00,VWS V14.01,2013-06-07 07:02:00,
2013-06-07 02:07:00,69.2,63.5,29.89,NNE,18,0.0,0.0,82,0.00,,,0.00,VWS V14.01,2013-06-07 07:07:00,
2013-06-07 02:12:00,69.3,63.6,29.89,NNE,18,0.0,0.0,82,0.00,,,0.00,VWS V14.01,2013-06-07 07:12:00,
2013-06-07 02:17:00,69.3,63.9,29.89,NNE,18,0.0,0.0,83,0.00,,,0.00,VWS V14.01,2013-06-07 07:17:00,
2013-06-07 02:22:00,69.4,63.7,29.89,NNE,18,0.0,0.0,82,0.00,,,0.00,VWS V14.01,2013-06-07 07:22:00,
2013-06-07 02:27:00,69.4,64.0,29.90,NNE,14,0.0,1.0,83,0.00,,,0.00,VWS V14.01,2013-06-07 07:27:00,
2013-06-07 02:32:00,69.5,64.1,29.90,NNE,14,1.0,1.0,83,0.00,,,0.00,VWS V14.01,2013-06-07 07:32:00,
2013-06-07 02:37:00,69.8,64.1,29.89,NNE,14,1.0,2.0,82,0.00,,,0.00,VWS V14.01,2013-06-07 07:37:00,
2013-06-07 02:42:00,70.0,63.9,29.89,North,356,2.0,4.0,81,0.00,,,0.00,VWS V14.01,2013-06-07 07:42:00,
2013-06-07 02:47:00,70.1,64.0,29.89,North,355,1.0,2.0,81,0.00,,,0.00,VWS V14.01,2013-06-07 07:47:00,
2013-06-07 02:52:00,70.0,63.9,29.90,North,355,0.0,1.0,81,0.00,,,0.00,VWS V14.01,2013-06-07 07:52:00,
2013-06-07 02:57:00,69.9,63.8,29.90,North,355,0.0,0.0,81,0.00,,,0.00,VWS V14.01,2013-06-07 07:57:00,
2013-06-07 03:02:00,69.7,63.6,29.90,North,356,0.0,1.0,81,0.00,,,0.00,VWS V14.01,2013-06-07 08:02:00,
2013-06-07 03:07:00,69.4,63.7,29.90,North,355,0.0,0.0,82,0.00,,,0.00,VWS V14.01,2013-06-07 08:07:00,
2013-06-07 03:12:00,69.1,63.7,29.89,North,355,0.0,0.0,83,0.00,,,0.00,VWS V14.01,2013-06-07 08:12:00,
2013-06-07 03:17:00,69.1,63.7,29.89,North,352,2.0,3.0,83,0.00,,,0.00,VWS V14.01,2013-06-07 08:17:00,
2013-06-07 03:22:00,69.3,63.6,29.89,North,350,2.0,3.0,82,0.00,,,0.00,VWS V14.01,2013-06-07 08:22:00,
2013-06-07 03:27:00,69.5,63.8,29.89,North,350,2.0,2.0,82,0.00,,,0.00,VWS V14.01,2013-06-07 08:27:00,
2013-06-07 03:32:00,69.5,63.8,29.89,NNW,333,4.0,5.0,82,0.00,,,0.00,VWS V14.01,2013-06-07 08:32:00,
2013-06-07 03:37:00,69.5,63.8,29.89,NNW,336,3.0,5.0,82,0.00,,,0.00,VWS V14.01,2013-06-07 08:37:00,
2013-06-07 03:42:00,69.5,63.8,29.89,NNW,329,3.0,4.0,82,0.00,,,0.00,VWS V14.01,2013-06-07 08:42:00,
2013-06-07 03:47:00,69.4,63.7,29.89,NNW,331,2.0,4.0,82,0.00,,,0.00,VWS V14.01,2013-06-07 08:47:00,
2013-06-07 03:52:00,69.3,63.9,29.89,NW,323,3.0,3.0,83,0.00,,,0.00,VWS V14.01,2013-06-07 08:52:00,
2013-06-07 03:57:00,69.3,63.9,29.89,NNW,329,0.0,2.0,83,0.00,,,0.00,VWS V14.01,2013-06-07 08:57:00,
2013-06-07 04:02:00,69.3,63.9,29.90,NNW,329,1.0,2.0,83,0.00,,,0.00,VWS V14.01,2013-06-07 09:02:00,
2013-06-07 04:07:00,69.3,63.9,29.89,NNW,329,0.0,1.0,83,0.00,,,0.00,VWS V14.01,2013-06-07 09:07:00,
2013-06-07 04:12:00,69.2,63.8,29.89,NNW,329,0.0,0.0,83,0.00,,,0.00,VWS V14.01,2013-06-07 09:12:00,
2013-06-07 04:17:00,69.1,63.7,29.90,NNW,329,0.0,0.0,83,0.00,,,0.00,VWS V14.01,2013-06-07 09:17:00,
2013-06-07 04:22:00,68.9,63.5,29.89,North,352,2.0,2.0,83,0.00,,,0.00,VWS V14.01,2013-06-07 09:22:00,
2013-06-07 04:27:00,68.6,63.6,29.89,North,353,1.0,2.0,84,0.00,,,0.00,VWS V14.01,2013-06-07 09:27:00,
2013-06-07 04:32:00,68.5,63.5,29.89,North,352,2.0,2.0,84,0.00,,,0.00,VWS V14.01,2013-06-07 09:32:00,
2013-06-07 04:37:00,68.5,63.5,29.89,North,353,1.0,1.0,84,0.00,,,0.00,VWS V14.01,2013-06-07 09:37:00,
2013-06-07 04:42:00,68.6,63.6,29.89,North,350,2.0,3.0,84,0.00,,,0.00,VWS V14.01,2013-06-07 09:42:00,
2013-06-07 04:47:00,68.7,63.7,29.88,NNW,343,3.0,3.0,84,0.00,,,0.00,VWS V14.01,2013-06-07 09:47:00,
2013-06-07 04:52:00,68.8,63.8,29.89,NNW,336,3.0,4.0,84,0.00,,,0.00,VWS V14.01,2013-06-07 09:52:00,
2013-06-07 04:57:00,68.8,63.4,29.89,North,352,4.0,5.0,83,0.00,,,0.00,VWS V14.01,2013-06-07 09:57:00,
2013-06-07 05:02:00,68.8,63.4,29.89,North,1,4.0,5.0,83,0.00,,,0.00,VWS V14.01,2013-06-07 10:02:00,
2013-06-07 05:07:00,68.7,63.7,29.89,North,358,2.0,5.0,84,0.00,,,0.00,VWS V14.01,2013-06-07 10:07:00,
2013-06-07 05:12:00,68.6,63.6,29.89,North,355,3.0,4.0,84,0.00,,,0.00,VWS V14.01,2013-06-07 10:12:00,
2013-06-07 05:17:00,68.6,63.6,29.89,North,11,3.0,3.0,84,0.00,,,0.00,VWS V14.01,2013-06-07 10:17:00,
2013-06-07 05:22:00,68.7,63.7,29.89,North,355,3.0,6.0,84,0.00,,,0.00,VWS V14.01,2013-06-07 10:22:00,
2013-06-07 05:27:00,68.7,63.7,29.89,North,7,3.0,5.0,84,0.00,,,0.00,VWS V14.01,2013-06-07 10:27:00,
2013-06-07 05:32:00,68.6,63.6,29.89,NNE,16,1.0,2.0,84,0.00,,,0.00,VWS V14.01,2013-06-07 10:32:00,
2013-06-07 05:37:00,68.6,63.6,29.90,NNE,31,0.0,4.0,84,0.00,,,0.00,VWS V14.01,2013-06-07 10:37:00,
2013-06-07 05:42:00,68.7,63.7,29.90,NNE,30,1.0,2.0,84,0.00,,,0.00,VWS V14.01,2013-06-07 10:42:00,
2013-06-07 05:47:00,68.8,63.8,29.90,NNE,15,3.0,4.0,84,0.00,,,0.00,VWS V14.01,2013-06-07 10:47:00,
2013-06-07 05:52:00,68.9,63.9,29.90,NNE,19,2.0,3.0,84,0.00,,,0.00,VWS V14.01,2013-06-07 10:52:00,
2013-06-07 05:57:00,68.8,63.8,29.90,NNE,19,1.0,4.0,84,0.00,,,0.00,VWS V14.01,2013-06-07 10:57:00,
2013-06-07 06:02:00,68.8,63.8,29.90,NNE,19,2.0,4.0,84,0.00,,,0.00,VWS V14.01,2013-06-07 11:02:00,
2013-06-07 06:07:00,68.9,63.9,29.90,NNE,15,1.0,4.0,84,0.00,,,0.00,VWS V14.01,2013-06-07 11:07:00,
2013-06-07 06:12:00,68.8,63.8,29.90,NNE,29,1.0,4.0,84,0.00,,,0.00,VWS V14.01,2013-06-07 11:12:00,
2013-06-07 06:17:00,68.8,63.8,29.90,NE,37,2.0,2.0,84,0.00,,,0.00,VWS V14.01,2013-06-07 11:17:00,
2013-06-07 06:22:00,68.7,63.7,29.90,NNE,15,2.0,3.0,84,0.00,,,0.00,VWS V14.01,2013-06-07 11:22:00,
2013-06-07 06:27:00,68.6,63.6,29.90,NNE,18,1.0,1.0,84,0.00,,,0.00,VWS V14.01,2013-06-07 11:27:00,
2013-06-07 06:32:00,68.6,63.6,29.90,NNE,33,2.0,4.0,84,0.00,,,0.00,VWS V14.01,2013-06-07 11:32:00,
2013-06-07 06:37:00,68.5,63.5,29.90,ENE,64,3.0,4.0,84,0.00,,,0.00,VWS V14.01,2013-06-07 11:37:00,
2013-06-07 06:42:00,68.5,63.5,29.90,ENE,61,3.0,5.0,84,0.00,,,0.00,VWS V14.01,2013-06-07 11:42:00,
2013-06-07 06:47:00,68.7,63.0,29.90,ENE,72,4.0,7.0,82,0.00,,,0.00,VWS V14.01,2013-06-07 11:47:00,
2013-06-07 06:52:00,68.8,62.7,29.91,NNE,30,6.0,7.0,81,0.00,,,0.00,VWS V14.01,2013-06-07 11:52:00,
2013-06-07 06:57:00,69.0,62.9,29.91,NE,37,3.0,6.0,81,0.00,,,0.00,VWS V14.01,2013-06-07 11:57:00,
2013-06-07 07:02:00,69.1,62.7,29.91,NE,42,5.0,7.0,80,0.00,,,0.00,VWS V14.01,2013-06-07 12:02:00,
2013-06-07 07:07:00,69.3,62.9,29.91,NE,40,4.0,8.0,80,0.00,,,0.00,VWS V14.01,2013-06-07 12:07:00,
2013-06-07 07:12:00,69.4,63.0,29.91,ENE,57,3.0,7.0,80,0.00,,,0.00,VWS V14.01,2013-06-07 12:12:00,
2013-06-07 07:17:00,69.7,62.9,29.91,NNE,22,2.0,6.0,79,0.00,,,0.00,VWS V14.01,2013-06-07 12:17:00,
2013-06-07 07:22:00,70.1,63.3,29.92,NNE,19,2.0,5.0,79,0.00,,,0.00,VWS V14.01,2013-06-07 12:22:00,
2013-06-07 07:27:00,70.4,62.8,29.92,NNE,18,7.0,9.0,77,0.00,,,0.00,VWS V14.01,2013-06-07 12:27:00,
2013-06-07 07:32:00,70.9,63.3,29.92,NNE,16,5.0,8.0,77,0.00,,,0.00,VWS V14.01,2013-06-07 12:32:00,
2013-06-07 07:37:00,71.0,63.1,29.92,NNE,19,6.0,10.0,76,0.00,,,0.00,VWS V14.01,2013-06-07 12:37:00,
2013-06-07 07:42:00,70.7,62.8,29.92,ENE,57,8.0,10.0,76,0.00,,,0.00,VWS V14.01,2013-06-07 12:42:00,
2013-06-07 07:47:00,70.7,62.8,29.92,NE,53,5.0,8.0,76,0.00,,,0.00,VWS V14.01,2013-06-07 12:47:00,
2013-06-07 07:52:00,71.0,62.7,29.92,East,80,9.0,9.0,75,0.00,,,0.00,VWS V14.01,2013-06-07 12:52:00,
2013-06-07 07:57:00,71.2,62.9,29.92,NE,56,6.0,9.0,75,0.00,,,0.00,VWS V14.01,2013-06-07 12:57:00,
2013-06-07 08:02:00,71.2,62.9,29.92,NNE,19,6.0,9.0,75,0.00,,,0.00,VWS V14.01,2013-06-07 13:02:00,
2013-06-07 08:07:00,71.5,63.2,29.92,NE,40,4.0,11.0,75,0.00,,,0.00,VWS V14.01,2013-06-07 13:07:00,
2013-06-07 08:12:00,71.8,63.1,29.92,East,90,10.0,10.0,74,0.00,,,0.00,VWS V14.01,2013-06-07 13:12:00,
2013-06-07 08:17:00,72.3,63.6,29.92,NE,53,8.0,8.0,74,0.00,,,0.00,VWS V14.01,2013-06-07 13:17:00,
2013-06-07 08:22:00,72.0,62.9,29.92,NE,47,6.0,11.0,73,0.00,,,0.00,VWS V14.01,2013-06-07 13:22:00,
2013-06-07 08:27:00,71.9,62.8,29.92,NNE,31,11.0,11.0,73,0.00,,,0.00,VWS V14.01,2013-06-07 13:27:00,
2013-06-07 08:32:00,71.8,62.7,29.93,NNE,21,8.0,8.0,73,0.00,,,0.00,VWS V14.01,2013-06-07 13:32:00,
2013-06-07 08:37:00,71.7,62.2,29.93,NNE,31,6.0,9.0,72,0.00,,,0.00,VWS V14.01,2013-06-07 13:37:00,
2013-06-07 08:42:00,71.8,62.3,29.94,NE,45,6.0,9.0,72,0.00,,,0.00,VWS V14.01,2013-06-07 13:42:00,
2013-06-07 08:47:00,71.9,62.4,29.94,NNE,28,7.0,9.0,72,0.00,,,0.00,VWS V14.01,2013-06-07 13:47:00,
2013-06-07 08:52:00,72.4,62.9,29.95,ENE,61,6.0,6.0,72,0.00,,,0.00,VWS V14.01,2013-06-07 13:52:00,
2013-06-07 08:57:00,72.6,62.7,29.95,East,80,5.0,10.0,71,0.00,,,0.00,VWS V14.01,2013-06-07 13:57:00,
2013-06-07 09:02:00,72.7,62.8,29.95,East,87,4.0,6.0,71,0.00,,,0.00,VWS V14.01,2013-06-07 14:02:00,
2013-06-07 09:07:00,72.9,63.0,29.95,East,91,4.0,5.0,71,0.00,,,0.00,VWS V14.01,2013-06-07 14:07:00,
2013-06-07 09:12:00,72.8,62.5,29.96,East,84,3.0,6.0,70,0.00,,,0.00,VWS V14.01,2013-06-07 14:12:00,
2013-06-07 09:17:00,72.9,62.5,29.96,NNE,25,4.0,6.0,70,0.00,,,0.00,VWS V14.01,2013-06-07 14:17:00,
2013-06-07 09:22:00,73.1,62.7,29.96,NNE,14,3.0,7.0,70,0.00,,,0.00,VWS V14.01,2013-06-07 14:22:00,
2013-06-07 09:27:00,73.4,62.6,29.97,ENE,62,6.0,7.0,69,0.00,,,0.00,VWS V14.01,2013-06-07 14:27:00,
2013-06-07 09:32:00,73.6,62.4,29.97,NNE,19,4.0,7.0,68,0.00,,,0.00,VWS V14.01,2013-06-07 14:32:00,
2013-06-07 09:37:00,73.7,62.1,29.97,NNE,16,6.0,7.0,67,0.00,,,0.00,VWS V14.01,2013-06-07 14:37:00,
2013-06-07 09:42:00,73.9,62.3,29.97,North,2,5.0,9.0,67,0.00,,,0.00,VWS V14.01,2013-06-07 14:42:00,
2013-06-07 09:47:00,73.9,62.3,29.98,North,11,4.0,10.0,67,0.00,,,0.00,VWS V14.01,2013-06-07 14:47:00,
2013-06-07 09:52:00,74.1,62.0,29.98,NW,326,8.0,8.0,66,0.00,,,0.00,VWS V14.01,2013-06-07 14:52:00,
2013-06-07 09:57:00,74.3,62.2,29.98,North,8,6.0,8.0,66,0.00,,,0.00,VWS V14.01,2013-06-07 14:57:00,
2013-06-07 10:02:00,74.7,62.2,29.98,NNE,14,4.0,6.0,65,0.00,,,0.00,VWS V14.01,2013-06-07 15:02:00,
2013-06-07 10:07:00,75.1,62.1,29.98,North,355,9.0,10.0,64,0.00,,,0.00,VWS V14.01,2013-06-07 15:07:00,
2013-06-07 10:12:00,75.1,62.1,29.98,NNW,333,6.0,12.0,64,0.00,,,0.00,VWS V14.01,2013-06-07 15:12:00,
2013-06-07 10:17:00,75.3,62.3,29.97,North,11,4.0,8.0,64,0.00,,,0.00,VWS V14.01,2013-06-07 15:17:00,
2013-06-07 10:22:00,75.3,61.8,29.98,North,2,4.0,8.0,63,0.00,,,0.00,VWS V14.01,2013-06-07 15:22:00,
2013-06-07 10:27:00,75.5,62.0,29.97,NNW,329,5.0,10.0,63,0.00,,,0.00,VWS V14.01,2013-06-07 15:27:00,
2013-06-07 10:32:00,75.4,62.4,29.97,North,357,5.0,6.0,64,0.00,,,0.00,VWS V14.01,2013-06-07 15:32:00,
2013-06-07 10:37:00,75.7,62.7,29.97,North,355,3.0,7.0,64,0.00,,,0.00,VWS V14.01,2013-06-07 15:37:00,
2013-06-07 10:42:00,75.7,61.8,29.97,NW,305,4.0,5.0,62,0.00,,,0.00,VWS V14.01,2013-06-07 15:42:00,
2013-06-07 10:47:00,76.1,62.6,29.97,NNW,334,3.0,4.0,63,0.00,,,0.00,VWS V14.01,2013-06-07 15:47:00,
2013-06-07 10:52:00,76.7,63.2,29.97,NNW,331,1.0,1.0,63,0.00,,,0.00,VWS V14.01,2013-06-07 15:52:00,
2013-06-07 10:57:00,77.4,62.0,29.96,WNW,286,3.0,6.0,59,0.00,,,0.00,VWS V14.01,2013-06-07 15:57:00,
2013-06-07 11:02:00,77.4,61.0,29.96,North,4,7.0,10.0,57,0.00,,,0.00,VWS V14.01,2013-06-07 16:02:00,
2013-06-07 11:07:00,77.3,60.4,29.96,NNE,19,0.0,5.0,56,0.00,,,0.00,VWS V14.01,2013-06-07 16:07:00,
2013-06-07 11:12:00,77.2,60.3,29.95,NW,308,4.0,7.0,56,0.00,,,0.00,VWS V14.01,2013-06-07 16:12:00,
2013-06-07 11:17:00,77.5,61.6,29.95,NNE,31,4.0,5.0,58,0.00,,,0.00,VWS V14.01,2013-06-07 16:17:00,
2013-06-07 11:22:00,78.1,59.1,29.94,NNE,23,3.0,6.0,52,0.00,,,0.00,VWS V14.01,2013-06-07 16:22:00,
2013-06-07 11:27:00,78.4,59.3,29.94,NE,46,5.0,10.0,52,0.00,,,0.00,VWS V14.01,2013-06-07 16:27:00,
2013-06-07 11:32:00,78.4,60.4,29.94,NNW,340,7.0,9.0,54,0.00,,,0.00,VWS V14.01,2013-06-07 16:32:00,
2013-06-07 11:37:00,78.2,60.7,29.93,NE,56,2.0,7.0,55,0.00,,,0.00,VWS V14.01,2013-06-07 16:37:00,
2013-06-07 11:42:00,78.4,59.9,29.93,NNE,17,2.0,9.0,53,0.00,,,0.00,VWS V14.01,2013-06-07 16:42:00,
2013-06-07 11:47:00,78.8,59.7,29.93,NNE,21,8.0,10.0,52,0.00,,,0.00,VWS V14.01,2013-06-07 16:47:00,
2013-06-07 11:52:00,79.1,60.0,29.93,NE,52,3.0,7.0,52,0.00,,,0.00,VWS V14.01,2013-06-07 16:52:00,
2013-06-07 11:57:00,79.5,58.7,29.93,North,357,4.0,11.0,49,0.00,,,0.00,VWS V14.01,2013-06-07 16:57:00,
2013-06-07 12:02:00,79.3,59.1,29.93,North,11,10.0,12.0,50,0.00,,,0.00,VWS V14.01,2013-06-07 17:02:00,
2013-06-07 12:07:00,79.5,60.3,29.93,NNE,19,5.0,8.0,52,0.00,,,0.00,VWS V14.01,2013-06-07 17:07:00,
2013-06-07 12:12:00,79.6,59.3,29.93,NNE,18,1.0,7.0,50,0.00,,,0.00,VWS V14.01,2013-06-07 17:12:00,
2013-06-07 12:17:00,79.9,59.6,29.93,North,5,10.0,12.0,50,0.00,,,0.00,VWS V14.01,2013-06-07 17:17:00,
2013-06-07 12:22:00,80.2,59.3,29.93,NNE,19,5.0,6.0,49,0.00,,,0.00,VWS V14.01,2013-06-07 17:22:00,
2013-06-07 12:27:00,80.7,59.2,29.92,NNW,343,7.0,7.0,48,0.00,,,0.00,VWS V14.01,2013-06-07 17:27:00,
2013-06-07 12:32:00,81.2,60.2,29.92,NNE,14,8.0,11.0,49,0.00,,,0.00,VWS V14.01,2013-06-07 17:32:00,
2013-06-07 12:37:00,81.4,59.8,29.92,ENE,73,1.0,6.0,48,0.00,,,0.00,VWS V14.01,2013-06-07 17:37:00,
2013-06-07 12:42:00,82.4,59.6,29.92,ENE,61,7.0,10.0,46,0.00,,,0.00,VWS V14.01,2013-06-07 17:42:00,
2013-06-07 12:47:00,81.9,57.2,29.92,NNE,33,2.0,5.0,43,0.00,,,0.00,VWS V14.01,2013-06-07 17:47:00,
2013-06-07 12:52:00,82.1,56.8,29.92,North,360,8.0,12.0,42,0.00,,,0.00,VWS V14.01,2013-06-07 17:52:00,
2013-06-07 12:57:00,82.2,56.2,29.92,East,88,10.0,13.0,41,0.00,,,0.00,VWS V14.01,2013-06-07 17:57:00,
2013-06-07 13:02:00,83.1,57.7,29.92,NNE,28,2.0,10.0,42,0.00,,,0.00,VWS V14.01,2013-06-07 18:02:00,
2013-06-07 13:07:00,83.3,56.5,29.92,NNE,14,12.0,12.0,40,0.00,,,0.00,VWS V14.01,2013-06-07 18:07:00,
2013-06-07 13:13:00,83.0,56.2,29.92,East,82,8.0,11.0,40,0.00,,,0.00,VWS V14.01,2013-06-07 18:13:00,
2013-06-07 13:18:00,83.2,56.4,29.92,NNE,19,5.0,9.0,40,0.00,,,0.00,VWS V14.01,2013-06-07 18:18:00,
2013-06-07 13:23:00,83.2,57.1,29.92,North,359,5.0,9.0,41,0.00,,,0.00,VWS V14.01,2013-06-07 18:23:00,
2013-06-07 13:28:00,83.6,55.3,29.92,NNE,20,4.0,14.0,38,0.00,,,0.00,VWS V14.01,2013-06-07 18:28:00,
2013-06-07 13:33:00,83.4,53.7,29.92,NE,45,5.0,11.0,36,0.00,,,0.00,VWS V14.01,2013-06-07 18:33:00,
2013-06-07 13:38:00,83.4,55.9,29.93,North,8,7.0,9.0,39,0.00,,,0.00,VWS V14.01,2013-06-07 18:38:00,
2013-06-07 13:43:00,83.2,55.0,29.93,East,84,3.0,5.0,38,0.00,,,0.00,VWS V14.01,2013-06-07 18:43:00,
2013-06-07 13:49:00,82.8,55.3,29.93,NNW,348,3.0,8.0,39,0.00,,,0.00,VWS V14.01,2013-06-07 18:49:00,
2013-06-07 13:54:00,83.2,56.4,29.93,NNE,19,3.0,5.0,40,0.00,,,0.00,VWS V14.01,2013-06-07 18:54:00,
2013-06-07 13:59:00,83.3,55.1,29.92,North,353,9.0,12.0,38,0.00,,,0.00,VWS V14.01,2013-06-07 18:59:00,
2013-06-07 14:04:00,83.5,56.0,29.92,NNW,348,5.0,8.0,39,0.00,,,0.00,VWS V14.01,2013-06-07 19:04:00,
2013-06-07 14:09:00,83.2,55.7,29.92,NNE,14,3.0,11.0,39,0.00,,,0.00,VWS V14.01,2013-06-07 19:09:00,
2013-06-07 14:14:00,83.1,53.4,29.92,North,2,6.0,10.0,36,0.00,,,0.00,VWS V14.01,2013-06-07 19:14:00,
2013-06-07 14:19:00,82.9,54.0,29.92,East,101,4.0,7.0,37,0.00,,,0.00,VWS V14.01,2013-06-07 19:19:00,
2013-06-07 14:25:00,82.9,54.7,29.92,NW,321,5.0,7.0,38,0.00,,,0.00,VWS V14.01,2013-06-07 19:25:00,
2013-06-07 14:30:00,82.9,54.7,29.92,North,11,4.0,6.0,38,0.00,,,0.00,VWS V14.01,2013-06-07 19:30:00,
2013-06-07 14:35:00,83.2,53.5,29.92,NNW,346,0.0,7.0,36,0.00,,,0.00,VWS V14.01,2013-06-07 19:35:00,
2013-06-07 14:40:00,83.3,54.3,29.92,NNW,336,2.0,3.0,37,0.00,,,0.00,VWS V14.01,2013-06-07 19:40:00,
2013-06-07 14:45:00,83.7,54.7,29.92,NW,316,2.0,2.0,37,0.00,,,0.00,VWS V14.01,2013-06-07 19:45:00,
2013-06-07 14:50:00,84.0,56.4,29.92,NNW,334,1.0,1.0,39,0.00,,,0.00,VWS V14.01,2013-06-07 19:50:00,
2013-06-07 14:55:00,84.3,53.7,29.91,East,97,3.0,5.0,35,0.00,,,0.00,VWS V14.01,2013-06-07 19:55:00,
2013-06-07 15:00:00,84.1,55.0,29.91,NNE,33,4.0,5.0,37,0.00,,,0.00,VWS V14.01,2013-06-07 20:00:00,
2013-06-07 15:05:00,83.9,52.6,29.91,ENE,73,4.0,4.0,34,0.00,,,0.00,VWS V14.01,2013-06-07 20:05:00,
2013-06-07 15:10:00,83.9,52.6,29.91,NE,42,0.0,1.0,34,0.00,,,0.00,VWS V14.01,2013-06-07 20:10:00,
2013-06-07 15:16:00,83.8,53.3,29.91,ENE,76,0.0,2.0,35,0.00,,,0.00,VWS V14.01,2013-06-07 20:16:00,
2013-06-07 15:21:00,84.1,54.3,29.90,ESE,123,2.0,3.0,36,0.00,,,0.00,VWS V14.01,2013-06-07 20:21:00,
2013-06-07 15:26:00,84.0,54.2,29.90,NE,51,2.0,4.0,36,0.00,,,0.00,VWS V14.01,2013-06-07 20:26:00,
2013-06-07 15:31:00,84.3,54.5,29.90,NNW,348,1.0,2.0,36,0.00,,,0.00,VWS V14.01,2013-06-07 20:31:00,
2013-06-07 15:36:00,84.3,53.7,29.90,NNE,17,1.0,3.0,35,0.00,,,0.00,VWS V14.01,2013-06-07 20:36:00,
2013-06-07 15:42:00,83.9,55.6,29.90,SE,136,2.0,5.0,38,0.00,,,0.00,VWS V14.01,2013-06-07 20:42:00,
2013-06-07 15:47:00,83.5,55.2,29.90,SSE,165,3.0,5.0,38,0.00,,,0.00,VWS V14.01,2013-06-07 20:47:00,
2013-06-07 15:52:00,83.6,53.1,29.90,SSE,165,0.0,0.0,35,0.00,,,0.00,VWS V14.01,2013-06-07 20:52:00,
2013-06-07 15:57:00,84.0,55.7,29.89,East,87,0.0,2.0,38,0.00,,,0.00,VWS V14.01,2013-06-07 20:57:00,
2013-06-07 16:02:00,84.1,54.3,29.89,NNE,17,2.0,6.0,36,0.00,,,0.00,VWS V14.01,2013-06-07 21:02:00,
2013-06-07 16:07:00,83.9,54.9,29.89,ENE,66,6.0,7.0,37,0.00,,,0.00,VWS V14.01,2013-06-07 21:07:00,
2013-06-07 16:12:00,83.7,53.2,29.89,NE,49,2.0,6.0,35,0.00,,,0.00,VWS V14.01,2013-06-07 21:12:00,
2013-06-07 16:17:00,83.7,54.7,29.88,ESE,106,4.0,5.0,37,0.00,,,0.00,VWS V14.01,2013-06-07 21:17:00,
2013-06-07 16:22:00,83.8,54.8,29.88,ESE,122,3.0,4.0,37,0.00,,,0.00,VWS V14.01,2013-06-07 21:22:00,
2013-06-07 16:27:00,84.1,55.8,29.88,ESE,123,0.0,0.0,38,0.00,,,0.00,VWS V14.01,2013-06-07 21:27:00,
2013-06-07 16:32:00,84.7,55.6,29.88,SSW,213,2.0,2.0,37,0.00,,,0.00,VWS V14.01,2013-06-07 21:32:00,
2013-06-07 16:37:00,85.2,55.3,29.87,SSW,213,0.0,1.0,36,0.00,,,0.00,VWS V14.01,2013-06-07 21:37:00,
2013-06-07 16:42:00,85.8,55.8,29.87,NE,52,2.0,2.0,36,0.00,,,0.00,VWS V14.01,2013-06-07 21:42:00,
2013-06-07 16:47:00,85.3,53.8,29.87,East,97,5.0,7.0,34,0.00,,,0.00,VWS V14.01,2013-06-07 21:47:00,
2013-06-07 16:52:00,84.6,53.2,29.87,East,90,6.0,8.0,34,0.00,,,0.00,VWS V14.01,2013-06-07 21:52:00,
2013-06-07 16:57:00,84.3,52.9,29.86,East,81,7.0,9.0,34,0.00,,,0.00,VWS V14.01,2013-06-07 21:57:00,
2013-06-07 17:02:00,84.1,53.5,29.86,NE,53,2.0,7.0,35,0.00,,,0.00,VWS V14.01,2013-06-07 22:02:00,
2013-06-07 17:07:00,84.2,53.6,29.86,NNE,28,5.0,8.0,35,0.00,,,0.00,VWS V14.01,2013-06-07 22:07:00,
2013-06-07 17:12:00,84.1,52.7,29.86,North,358,2.0,5.0,34,0.00,,,0.00,VWS V14.01,2013-06-07 22:12:00,
2013-06-07 17:17:00,84.1,54.3,29.86,ENE,70,5.0,5.0,36,0.00,,,0.00,VWS V14.01,2013-06-07 22:17:00,
2013-06-07 17:22:00,83.9,52.6,29.86,East,85,2.0,5.0,34,0.00,,,0.00,VWS V14.01,2013-06-07 22:22:00,
2013-06-07 17:27:00,83.8,53.3,29.86,ENE,60,2.0,4.0,35,0.00,,,0.00,VWS V14.01,2013-06-07 22:27:00,
2013-06-07 17:32:00,83.8,53.3,29.86,NE,51,2.0,4.0,35,0.00,,,0.00,VWS V14.01,2013-06-07 22:32:00,
2013-06-07 17:37:00,83.9,54.1,29.85,NE,56,2.0,5.0,36,0.00,,,0.00,VWS V14.01,2013-06-07 22:37:00,
2013-06-07 17:43:00,83.7,52.4,29.85,NE,45,2.0,5.0,34,0.00,,,0.00,VWS V14.01,2013-06-07 22:43:00,
2013-06-07 17:48:00,83.6,53.8,29.85,NE,52,6.0,8.0,36,0.00,,,0.00,VWS V14.01,2013-06-07 22:48:00,
2013-06-07 17:53:00,83.6,54.6,29.84,NNE,28,3.0,7.0,37,0.00,,,0.00,VWS V14.01,2013-06-07 22:53:00,
2013-06-07 17:58:00,83.5,53.8,29.84,ENE,61,3.0,5.0,36,0.00,,,0.00,VWS V14.01,2013-06-07 22:58:00,
2013-06-07 18:03:00,83.4,54.4,29.84,NNE,24,1.0,3.0,37,0.00,,,0.00,VWS V14.01,2013-06-07 23:03:00,
2013-06-07 18:08:00,83.4,54.4,29.84,ESE,108,4.0,4.0,37,0.00,,,0.00,VWS V14.01,2013-06-07 23:08:00,
2013-06-07 18:13:00,83.2,54.2,29.84,NE,56,5.0,5.0,37,0.00,,,0.00,VWS V14.01,2013-06-07 23:13:00,
2013-06-07 18:18:00,83.2,54.2,29.84,ENE,61,4.0,6.0,37,0.00,,,0.00,VWS V14.01,2013-06-07 23:18:00,
2013-06-07 18:23:00,83.1,54.9,29.84,ENE,66,4.0,5.0,38,0.00,,,0.00,VWS V14.01,2013-06-07 23:23:00,
2013-06-07 18:28:00,83.0,53.3,29.83,East,81,4.0,8.0,36,0.00,,,0.00,VWS V14.01,2013-06-07 23:28:00,
2013-06-07 18:33:00,82.9,54.7,29.84,East,79,4.0,5.0,38,0.00,,,0.00,VWS V14.01,2013-06-07 23:33:00,
2013-06-07 18:38:00,82.8,55.3,29.84,ENE,71,2.0,3.0,39,0.00,,,0.00,VWS V14.01,2013-06-07 23:38:00,
2013-06-07 18:43:00,82.7,55.2,29.84,ENE,63,3.0,4.0,39,0.00,,,0.00,VWS V14.01,2013-06-07 23:43:00,
2013-06-07 18:48:00,82.5,54.4,29.84,East,80,3.0,4.0,38,0.00,,,0.00,VWS V14.01,2013-06-07 23:48:00,
2013-06-07 18:54:00,82.4,55.0,29.84,East,94,5.0,5.0,39,0.00,,,0.00,VWS V14.01,2013-06-07 23:54:00,
2013-06-07 18:59:00,82.3,54.9,29.83,East,82,3.0,5.0,39,0.00,,,0.00,VWS V14.01,2013-06-07 23:59:00,
2013-06-07 19:04:00,82.1,56.8,29.83,East,81,2.0,5.0,42,0.00,,,0.00,VWS V14.01,2013-06-08 00:04:00,
2013-06-07 19:09:00,81.9,55.2,29.83,East,98,2.0,6.0,40,0.00,,,0.00,VWS V14.01,2013-06-08 00:09:00,
2013-06-07 19:14:00,81.9,55.2,29.83,East,85,2.0,5.0,40,0.00,,,0.00,VWS V14.01,2013-06-08 00:14:00,
2013-06-07 19:19:00,81.9,55.9,29.83,ESE,106,3.0,6.0,41,0.00,,,0.00,VWS V14.01,2013-06-08 00:19:00,
2013-06-07 19:24:00,82.0,56.0,29.83,East,99,3.0,4.0,41,0.00,,,0.00,VWS V14.01,2013-06-08 00:24:00,
2013-06-07 19:29:00,82.3,56.9,29.83,East,87,4.0,5.0,42,0.00,,,0.00,VWS V14.01,2013-06-08 00:29:00,
2013-06-07 19:34:00,82.4,55.7,29.83,East,94,2.0,7.0,40,0.00,,,0.00,VWS V14.01,2013-06-08 00:34:00,
2013-06-07 19:39:00,82.5,55.8,29.83,NE,55,2.0,5.0,40,0.00,,,0.00,VWS V14.01,2013-06-08 00:39:00,
2013-06-07 19:44:00,82.5,56.5,29.83,East,80,2.0,5.0,41,0.00,,,0.00,VWS V14.01,2013-06-08 00:44:00,
2013-06-07 19:49:00,82.4,56.4,29.83,East,84,4.0,5.0,41,0.00,,,0.00,VWS V14.01,2013-06-08 00:49:00,
2013-06-07 19:54:00,82.2,56.2,29.83,East,92,5.0,7.0,41,0.00,,,0.00,VWS V14.01,2013-06-08 00:54:00,
2013-06-07 20:00:00,82.1,55.4,29.83,East,97,7.0,7.0,40,0.00,,,0.00,VWS V14.01,2013-06-08 01:00:00,
2013-06-07 20:05:00,81.8,55.8,29.83,NE,52,3.0,7.0,41,0.00,,,0.00,VWS V14.01,2013-06-08 01:05:00,
2013-06-07 20:10:00,81.6,56.3,29.84,ENE,70,2.0,2.0,42,0.00,,,0.00,VWS V14.01,2013-06-08 01:10:00,
2013-06-07 20:15:00,81.3,54.7,29.84,East,81,5.0,6.0,40,0.00,,,0.00,VWS V14.01,2013-06-08 01:15:00,
2013-06-07 20:20:00,81.3,55.4,29.84,ENE,78,5.0,7.0,41,0.00,,,0.00,VWS V14.01,2013-06-08 01:20:00,
2013-06-07 20:25:00,81.0,55.8,29.84,ENE,68,2.0,2.0,42,0.00,,,0.00,VWS V14.01,2013-06-08 01:25:00,
2013-06-07 20:30:00,80.3,55.8,29.84,ENE,70,2.0,2.0,43,0.00,,,0.00,VWS V14.01,2013-06-08 01:30:00,
2013-06-07 20:35:00,79.8,56.6,29.84,NE,52,1.0,1.0,45,0.00,,,0.00,VWS V14.01,2013-06-08 01:35:00,
2013-06-07 20:40:00,79.3,56.8,29.84,NE,52,1.0,2.0,46,0.00,,,0.00,VWS V14.01,2013-06-08 01:40:00,
2013-06-07 20:45:00,78.9,57.0,29.84,ENE,64,1.0,1.0,47,0.00,,,0.00,VWS V14.01,2013-06-08 01:45:00,
2013-06-07 20:50:00,78.5,56.6,29.84,NE,42,2.0,2.0,47,0.00,,,0.00,VWS V14.01,2013-06-08 01:50:00,
2013-06-07 20:55:00,78.1,56.2,29.84,NE,43,2.0,3.0,47,0.00,,,0.00,VWS V14.01,2013-06-08 01:55:00,
2013-06-07 21:00:00,77.7,56.5,29.84,NE,53,3.0,5.0,48,0.00,,,0.00,VWS V14.01,2013-06-08 02:00:00,
2013-06-07 21:06:00,77.5,56.3,29.84,ENE,70,3.0,3.0,48,0.00,,,0.00,VWS V14.01,2013-06-08 02:06:00,
2013-06-07 21:11:00,77.1,56.5,29.85,ENE,64,2.0,3.0,49,0.00,,,0.00,VWS V14.01,2013-06-08 02:11:00,
2013-06-07 21:16:00,76.6,56.6,29.85,ENE,64,1.0,2.0,50,0.00,,,0.00,VWS V14.01,2013-06-08 02:16:00,
2013-06-07 21:21:00,76.2,56.2,29.84,ENE,64,1.0,2.0,50,0.00,,,0.00,VWS V14.01,2013-06-08 02:21:00,
2013-06-07 21:26:00,75.9,56.5,29.85,ENE,64,1.0,1.0,51,0.00,,,0.00,VWS V14.01,2013-06-08 02:26:00,
2013-06-07 21:31:00,75.3,56.5,29.85,ENE,64,0.0,0.0,52,0.00,,,0.00,VWS V14.01,2013-06-08 02:31:00,
2013-06-07 21:36:00,74.9,56.6,29.85,ENE,64,0.0,0.0,53,0.00,,,0.00,VWS V14.01,2013-06-08 02:36:00,
2013-06-07 21:41:00,74.6,56.4,29.86,ENE,63,0.0,0.0,53,0.00,,,0.00,VWS V14.01,2013-06-08 02:41:00,
2013-06-07 21:46:00,74.4,56.7,29.86,ENE,63,0.0,0.0,54,0.00,,,0.00,VWS V14.01,2013-06-08 02:46:00,
2013-06-07 21:51:00,74.0,57.3,29.86,NE,55,1.0,2.0,56,0.00,,,0.00,VWS V14.01,2013-06-08 02:51:00,
2013-06-07 21:56:00,73.7,57.0,29.86,NE,53,1.0,2.0,56,0.00,,,0.00,VWS V14.01,2013-06-08 02:56:00,
2013-06-07 22:02:00,73.1,57.0,29.86,NE,47,1.0,1.0,57,0.00,,,0.00,VWS V14.01,2013-06-08 03:02:00,
2013-06-07 22:07:00,72.8,56.7,29.87,NE,47,2.0,2.0,57,0.00,,,0.00,VWS V14.01,2013-06-08 03:07:00,
2013-06-07 22:12:00,73.0,56.4,29.87,NE,47,2.0,3.0,56,0.00,,,0.00,VWS V14.01,2013-06-08 03:12:00,
2013-06-07 22:17:00,72.9,56.8,29.87,NE,54,1.0,2.0,57,0.00,,,0.00,VWS V14.01,2013-06-08 03:17:00,
2013-06-07 22:22:00,72.7,56.1,29.87,ENE,64,3.0,3.0,56,0.00,,,0.00,VWS V14.01,2013-06-08 03:22:00,
2013-06-07 22:27:00,72.9,56.3,29.88,NE,47,2.0,2.0,56,0.00,,,0.00,VWS V14.01,2013-06-08 03:27:00,
2013-06-07 22:32:00,73.0,56.4,29.88,NE,46,2.0,4.0,56,0.00,,,0.00,VWS V14.01,2013-06-08 03:32:00,
2013-06-07 22:37:00,72.9,56.3,29.88,NE,47,3.0,4.0,56,0.00,,,0.00,VWS V14.01,2013-06-08 03:37:00,
2013-06-07 22:42:00,72.9,56.3,29.88,NE,47,3.0,4.0,56,0.00,,,0.00,VWS V14.01,2013-06-08 03:42:00,
2013-06-07 22:47:00,72.9,56.3,29.88,NE,49,3.0,4.0,56,0.00,,,0.00,VWS V14.01,2013-06-08 03:47:00,
2013-06-07 22:52:00,72.7,56.1,29.88,ENE,63,2.0,4.0,56,0.00,,,0.00,VWS V14.01,2013-06-08 03:52:00,
2013-06-07 22:57:00,72.7,56.1,29.89,NE,53,3.0,5.0,56,0.00,,,0.00,VWS V14.01,2013-06-08 03:57:00,
2013-06-07 23:01:00,72.5,55.9,29.88,East,81,4.0,5.0,56,0.00,,,0.00,VWS V14.01,2013-06-08 04:01:00,
2013-06-07 23:06:00,72.1,55.6,29.88,East,96,3.0,4.0,56,0.00,,,0.00,VWS V14.01,2013-06-08 04:06:00,
2013-06-07 23:11:00,71.8,55.8,29.88,ENE,77,2.0,5.0,57,0.00,,,0.00,VWS V14.01,2013-06-08 04:11:00,
2013-06-07 23:16:00,71.4,55.4,29.88,East,80,2.0,4.0,57,0.00,,,0.00,VWS V14.01,2013-06-08 04:16:00,
2013-06-07 23:21:00,71.1,55.1,29.89,ENE,73,2.0,2.0,57,0.00,,,0.00,VWS V14.01,2013-06-08 04:21:00,
2013-06-07 23:26:00,70.9,55.4,29.89,ENE,66,1.0,2.0,58,0.00,,,0.00,VWS V14.01,2013-06-08 04:26:00,
2013-06-07 23:31:00,70.7,55.2,29.88,ENE,64,1.0,1.0,58,0.00,,,0.00,VWS V14.01,2013-06-08 04:31:00,
2013-06-07 23:36:00,70.5,55.0,29.89,ENE,64,1.0,1.0,58,0.00,,,0.00,VWS V14.01,2013-06-08 04:36:00,
2013-06-07 23:41:00,70.1,55.1,29.89,ENE,64,0.0,1.0,59,0.00,,,0.00,VWS V14.01,2013-06-08 04:41:00,
2013-06-07 23:46:00,69.5,55.5,29.89,ENE,64,0.0,0.0,61,0.00,,,0.00,VWS V14.01,2013-06-08 04:46:00,
2013-06-07 23:51:00,68.8,55.3,29.89,ENE,64,0.0,0.0,62,0.00,,,0.00,VWS V14.01,2013-06-08 04:51:00,
2013-06-07 23:56:00,68.5,55.0,29.89,ENE,64,0.0,0.0,62,0.00,,,0.00,VWS V14.01,2013-06-08 04:56:00,